Weather History for KCMX - December, 2012

Change the Weather History Date:

Wednesday, December 12, 2012

  Actual Average Record
Temperature  
Mean Temperature 20 °F -  
Max Temperature 28 °F 27 °F 44 °F (1998)
Min Temperature 12 °F 14 °F -6 °F (2013)
Degree Days  
Heating Degree Days 45    
Moisture  
Dew Point 14 °F    
Average Humidity 81    
Maximum Humidity 88    
Minimum Humidity 69    
Precipitation  
Precipitation 0.02 in - - ()
Sea Level Pressure  
Sea Level Pressure 30.00 in    
Wind  
Wind Speed 9 mph (SSW)    
Max Wind Speed 15 mph    
Max Gust Speed -    
Visibility 5 miles    
Events Snow    
Averages and records for this station are not official NWS values.
T = Trace of Precipitation, MM = Missing Value Source: NWS Daily Summary

Daily Weather History Graph

Daily Weather History Graph

Search for Another Location

Airport or City:

Trip Planner

Search our weather history database for the weather conditions in past years. The results will help you decide how hot, cold, wet, or windy it might be!

Date:

Astronomy

Dec. 12, 2012 Rise Set
Actual Time 8:31 AM EST 5:04 PM EST
Civil Twilight 7:56 AM EST 5:39 PM EST
Nautical Twilight 7:17 AM EST 6:18 PM EST
Astronomical Twilight 6:40 AM EST 6:55 PM EST
Moon 7:34 AM EST (12/12) 4:42 PM EST (12/12)
Length of Visible Light 9h 43m
Length of Day
8h 32m
Waning Crescent, 1% of the Moon is Illuminated
Dec 12
Waning Crescent
Dec 13
New
Dec 20
First Quarter
Dec 28
Full
Jan 4
Last Quarter

Hourly Weather History & Observations

Time (EST) Temp. Windchill Dew Point Humidity Pressure Visibility Wind Dir Wind Speed Gust Speed Precip Events Conditions
12:02 AM 17.6 °F 5.0 °F 12.2 °F 79% 29.88 in 1.8 mi WSW 11.5 mph - 0.00 in Snow Light Snow
12:36 AM 17.6 °F 6.4 °F 14.0 °F 86% 29.89 in 0.8 mi WSW 9.2 mph - 0.00 in Snow Light Snow
12:45 AM 17.6 °F 6.4 °F 14.0 °F 86% 29.90 in 1.5 mi WSW 9.2 mph - 0.01 in Snow Light Snow
12:53 AM 17.1 °F 5.8 °F 12.9 °F 84% 29.96 in 1.8 mi WSW 9.2 mph - 0.01 in Snow Light Snow
1:01 AM 17.6 °F 7.3 °F 12.2 °F 79% 29.90 in 1.8 mi WSW 8.1 mph - 0.00 in Snow Light Snow
1:48 AM 17.6 °F 6.4 °F 14.0 °F 86% 29.92 in 0.8 mi WSW 9.2 mph - 0.00 in Snow Light Snow
1:53 AM 17.1 °F 4.3 °F 14.0 °F 88% 29.98 in 0.8 mi WSW 11.5 mph - 0.00 in Snow Light Snow
2:12 AM 15.8 °F 3.4 °F 12.2 °F 86% 29.92 in 0.8 mi West 10.4 mph - 0.00 in Snow Light Snow
2:16 AM 15.8 °F 3.4 °F 12.2 °F 86% 29.92 in 1.0 mi West 10.4 mph - 0.00 in Snow Light Snow
2:53 AM 16.0 °F 4.4 °F 12.9 °F 88% 30.00 in 1.5 mi WSW 9.2 mph - 0.01 in Snow Light Snow
3:53 AM 17.1 °F 8.7 °F 14.0 °F 88% 30.03 in 1.0 mi WSW 5.8 mph - 0.00 in Snow Light Snow
4:11 AM 15.8 °F 4.2 °F 12.2 °F 86% 29.97 in 1.2 mi WSW 9.2 mph - 0.00 in Snow Light Snow
4:20 AM 15.8 °F 5.1 °F 12.2 °F 86% 29.97 in 1.2 mi WSW 8.1 mph - 0.00 in Snow Light Snow
4:53 AM 16.0 °F 4.4 °F 12.9 °F 88% 30.04 in 1.8 mi WSW 9.2 mph - 0.00 in Snow Light Snow
5:00 AM 15.8 °F 3.4 °F 12.2 °F 86% 29.98 in 2.5 mi WSW 10.4 mph - 0.00 in Snow Light Snow
5:10 AM 15.8 °F 5.1 °F 12.2 °F 86% 29.99 in 3.0 mi WSW 8.1 mph - 0.00 in Snow Light Snow
5:53 AM 16.0 °F 6.3 °F 12.0 °F 84% 30.06 in 3.0 mi SW 6.9 mph - 0.00 in Snow Light Snow
6:53 AM 16.0 °F 6.3 °F 10.9 °F 81% 30.09 in 7.0 mi WSW 6.9 mph - 0.00 in Snow Light Snow
7:53 AM 15.1 °F 4.2 °F 10.9 °F 84% 30.12 in 9.0 mi SW 8.1 mph - 0.00 in   Overcast
8:53 AM 12.0 °F 2.7 °F 8.1 °F 84% 30.13 in 10.0 mi SSW 5.8 mph - N/A   Partly Cloudy
9:53 AM 12.9 °F 0.7 °F 7.0 °F 77% 30.13 in 7.0 mi South 9.2 mph - N/A   Partly Cloudy
10:53 AM 14.0 °F 2.9 °F 9.0 °F 80% 30.14 in 10.0 mi South 8.1 mph - N/A   Overcast
11:53 AM 16.0 °F 4.4 °F 9.0 °F 74% 30.13 in 10.0 mi South 9.2 mph - N/A   Clear
1:53 PM 19.9 °F 11.1 °F 15.1 °F 81% 30.08 in 10.0 mi ESE 6.9 mph - N/A   Partly Cloudy
2:53 PM 23.0 °F 12.4 °F 15.1 °F 72% 30.04 in 10.0 mi East 10.4 mph - N/A   Overcast
3:53 PM 25.0 °F 12.6 °F 18.0 °F 75% 30.01 in 10.0 mi ESE 15.0 mph - N/A   Overcast
4:53 PM 27.0 °F 17.3 °F 19.9 °F 75% 29.99 in 10.0 mi East 10.4 mph - N/A   Overcast
5:53 PM 28.0 °F 20.0 °F 21.0 °F 75% 29.97 in 10.0 mi East 8.1 mph - N/A   Overcast
6:53 PM 28.9 °F 21.1 °F 19.9 °F 69% 29.97 in 10.0 mi SSE 8.1 mph - N/A   Overcast
7:53 PM 28.9 °F 19.8 °F 19.9 °F 69% 29.96 in 10.0 mi South 10.4 mph - N/A   Mostly Cloudy
8:53 PM 28.9 °F 21.9 °F 21.0 °F 72% 29.96 in 10.0 mi South 6.9 mph - N/A   Clear
9:53 PM 28.9 °F 21.1 °F 21.9 °F 75% 29.96 in 10.0 mi South 8.1 mph - N/A   Overcast
10:53 PM 28.9 °F 23.9 °F 21.9 °F 75% 29.95 in 10.0 mi South 4.6 mph - N/A   Overcast